CAPE
969 1154 318 27 30 90 202 607 1355 1582 1486 1454 1358 1352 1283 995 1322 1736 1883 1775 1660 1628 1313 1317 1492 1230 816 535 603 782 1117 1308 1531 1478 1479 1529 1594 1372 1029 978 1017 607 617
1856 1518 451 19 9 70 122 455 1299 1704 1676 1560 1556 1572 1524 1062 1224 1692 1917 2047 2018 1973 1549 1490 1451 1147 753 465 496 684 1043 1285 1303 1451 1403 1481 1529 1341 1002 1065 1181 623 631
1970 1578 1013 185 97 190 165 451 1128 1553 1774 1767 1653 1716 1622 1394 1396 1459 1769 2056 2300 2389 1943 1662 1567 1168 732 468 463 648 939 1228 1230 1291 1269 1410 1087 1258 909 1278 889 854 869
1442 1789 1459 488 316 316 468 478 749 1045 1512 1772 1741 1659 1602 1568 1540 1635 1793 2094 2420 2413 1983 1723 1909 1263 821 573 480 633 919 1015 904 916 1695 1401 1013 1079 1102 979 1090 1105 1117
1464 1784 1408 851 635 625 697 597 395 522 916 1494 1715 1824 1852 1851 1879 1896 1901 2057 2203 2081 1890 2124 2282 1659 895 661 464 415 647 942 797 1058 1456 1439 1458 1147 1205 1161 958 1105 822
1517 1549 912 951 913 876 776 775 617 517 501 759 1135 1456 1574 1627 1731 1699 1741 1993 2056 2036 2165 2314 2294 2033 1360 881 515 381 306 325 450 1641 795 1230 1551 1459 1252 1075 1337 1181 859
1296 1200 1127 944 1075 1111 1097 897 950 846 844 840 887 1096 1430 1675 1838 1866 1891 1925 1982 2017 2168 2236 2056 1414 1163 979 691 493 351 237 320 906 443 976 1756 1768 1379 1444 1016 1361 1036
1055 909 841 658 771 941 1043 1093 1073 1156 1297 1392 1407 1363 1354 1394 1477 1545 1525 1578 1708 1778 1835 1817 1864 1756 1436 1102 857 676 512 392 642 528 600 465 1268 1424 1324 1529 1438 1167 1094
827 1166 1031 705 337 298 374 564 803 1044 1170 1308 1488 1658 1775 1699 1673 1550 1498 1424 1404 1391 1461 1542 1775 2037 2049 1910 1549 1091 714 526 652 708 864 702 787 598 319 631 1324 1323 1277
677 995 1365 1144 1162 910 436 138 252 388 517 650 890 1120 1344 1544 1665 1713 1812 1793 1724 1555 1504 1463 1441 1453 1527 1552 1585 1519 1334 1069 1071 1060 1230 1270 805 769 591 559 833 1430 1297
261 454 804 1193 1271 1050 805 316 252 256 390 542 697 739 1100 1793 1869 1641 1124 1289 1373 1449 1510 1560 1578 1559 1501 1448 1376 1272 1179 1523 1666 1734 1717 1508 1288 1275 994 961 880 619 1174
97 85 219 460 914 1096 779 943 1014 841 876 823 824 977 951 824 685 429 280 445 568 703 908 1102 1274 1377 1330 1809 1927 1758 1874 1913 1868 2004 1915 1522 1593 1564 1367 1075 1106 1071 820
26 0 0 0 3 6 17 272 334 460 395 341 289 545 402 88 14 68 10 36 344 365 933 950 1076 1560 1523 1652 1847 1854 2033 2032 1864 1418 1502 1551 1489 1500 1390 1381 1222 1232 1284
0 0 0 0 0 0 0 0 0 0 0 1 4 45 199 11 0 0 0 0 0 1 57 94 367 390 993 991 969 1054 1101 1289 1028 1037 1079 1057 985 969 873 1222 1535 1544 1267
0 0 0 0 0 0 0 0 0 0 0 0 0 0 3 1 1 0 0 0 0 0 0 0 0 2 69 179 126 252 274 335 382 409 334 264 214 190 240 261 530 1005 1549
0 0 0 0 0 0 0 0 0 0 0 0 0 0 0 0 2 2 0 0 0 0 0 0 0 0 0 0 0 1 0 1 6 22 27 18 0 0 3 118 132 260 664
0 0 0 0 0 0 0 0 0 0 0 0 0 0 0 0 0 0 0 0 0 0 0 0 0 0 0 0 0 0 0 0 0 0 0 0 0 0 0 0 0 0 8
0 0 0 0 0 0 0 0 0 0 0 0 0 0 0 0 0 0 0 0 0 0 0 0 0 0 0 0 0 0 0 0 0 0 0 0 0 0 1 0 0 0 1
0 0 0 0 0 0 0 0 0 0 0 0 0 0 0 0 0 0 0 0 0 0 0 0 0 0 0 0 0 0 0 0 0 0 3 5 0 0 0 0 0 0 3
0 0 0 0 0 0 0 0 0 0 0 0 0 0 0 0 0 0 0 0 0 0 0 0 0 0 0 0 0 0 0 0 0 2 3 6 2 1 0 1 2 0 1
0 0 0 0 0 0 0 0 0 0 0 0 0 0 0 0 0 0 0 0 0 0 0 0 0 0 0 0 0 0 0 0 0 1 7 0 0 2 1 0 0 0 0
0 0 0 0 0 0 0 0 0 0 0 0 0 0 0 0 0 0 0 0 0 0 0 0 0 0 0 0 0 0 0 0 0 0 3 2 6 5 3 0 0 2 1
0 0 0 0 0 0 0 0 0 0 0 0 0 0 0 0 0 0 0 0 0 0 0 0 0 0 0 0 0 0 0 0 0 0 3 2 0 0 0 4 4 2 0
0 0 0 0 0 0 0 0 0 0 0 0 0 0 0 0 0 0 0 0 0 0 0 0 0 0 0 0 0 0 0 0 0 0 0 0 0 0 0 2 3 0 1
0 0 0 0 0 0 0 0 0 0 0 0 0 0 0 0 0 0 0 0 0 0 0 0 0 0 0 0 0 0 0 0 0 0 0 0 0 0 0 0 0 0 0
0 0 0 0 0 0 0 0 0 0 0 0 0 0 0 0 0 0 0 0 0 0 0 0 0 0 0 0 0 0 0 0 0 0 0 0 0 0 0 0 0 0 0
CIN
-111 -242 -415 -484 -467 -434 -380 -276 -158 -120 -121 -123 -131 -121 -123 -150 -105 -61 -47 -42 -39 -39 -57 -55 -46 -57 -81 -112 -105 -88 -65 -50 -28 -24 -20 -13 -1 -7 -21 -22 -18 -30 -59
-86 -153 -375 -477 -467 -412 -374 -292 -174 -124 -100 -114 -106 -99 -89 -132 -115 -58 -34 -22 -20 -18 -41 -46 -52 -68 -91 -131 -125 -100 -65 -43 -42 -29 -34 -34 -12 -17 -30 -26 -15 -39 -60
-84 -145 -213 -388 -404 -364 -355 -293 -178 -158 -109 -97 -109 -88 -78 -94 -86 -83 -44 -22 -7 -1 -20 -34 -43 -64 -107 -142 -149 -123 -77 -52 -48 -55 -46 -1 -36 -31 -41 -20 -34 -37 -31
-89 -46 -100 -314 -334 -317 -285 -277 -223 -195 -138 -107 -108 -108 -91 -84 -76 -63 -46 -17 -1 -1 -18 -32 -19 -65 -106 -144 -163 -139 -89 -75 -68 -73 -44 -7 -13 -56 -44 -41 -28 -21 -17
-62 -26 -142 -258 -286 -269 -247 -262 -285 -263 -209 -129 -110 -98 -81 -73 -60 -56 -41 -23 -8 -11 -15 -6 -3 -38 -101 -132 -173 -189 -138 -90 -95 -68 -5 -8 -2 -40 -42 -37 -46 -30 -43
-55 -82 -215 -222 -225 -226 -237 -229 -260 -264 -263 -216 -168 -132 -112 -103 -79 -74 -56 -22 -14 -9 -5 0 -1 -13 -59 -103 -148 -170 -191 -178 -150 -17 -1 -6 -3 -36 -46 -54 -17 -12 -29
-83 -125 -155 -204 -178 -178 -180 -211 -209 -221 -204 -206 -193 -166 -121 -97 -73 -60 -49 -38 -20 -10 -0 -0 -2 -41 -64 -91 -112 -144 -177 -196 -137 -8 -9 -1 -2 -26 -40 -39 -51 -12 -22
-103 -145 -170 -224 -208 -189 -184 -176 -188 -173 -149 -134 -130 -130 -126 -119 -107 -87 -80 -66 -41 -28 -12 -9 -3 -7 -29 -73 -96 -117 -153 -177 -91 -40 -1 -3 -22 -34 -36 -34 -33 -45 -50
-145 -86 -111 -181 -290 -321 -308 -265 -222 -181 -156 -136 -108 -82 -66 -65 -61 -68 -69 -72 -69 -65 -50 -41 -6 -3 -3 -7 -34 -82 -117 -158 -128 -45 -1 -2 -42 -83 -142 -98 -39 -41 -40
-175 -112 -50 -78 -74 -135 -262 -405 -375 -335 -290 -246 -181 -132 -92 -63 -44 -33 -21 -25 -28 -46 -39 -44 -38 -25 -14 -17 -26 -41 -52 -82 -79 -39 -4 -2 -41 -70 -88 -106 -74 -30 -32
-269 -213 -136 -62 -55 -91 -135 -284 -332 -343 -284 -235 -195 -170 -90 -7 -7 -35 -87 -66 -56 -44 -36 -21 -24 -26 -28 -28 -36 -58 -63 -14 -0 -3 -3 -21 -30 -31 -49 -67 -69 -91 -36
-293 -318 -263 -185 -87 -56 -82 -78 -59 -97 -89 -103 -107 -74 -77 -92 -118 -181 -217 -156 -132 -111 -79 -51 -30 -23 -34 -0 -1 -10 -7 -1 -2 -1 -6 -19 -19 -14 -14 -24 -28 -40 -61
-288 0 0 0 -59 -47 -320 -179 -147 -107 -145 -183 -214 -128 -169 -282 -39 -263 -264 -269 -111 -119 -22 -40 -25 -2 -0 -0 0 0 -0 -0 -1 -1 -1 -17 -24 -22 -16 -24 -15 -12 -14
0 0 0 0 0 0 0 0 0 0 0 -0 -0 -220 -173 -168 0 0 0 0 0 -12 -126 -118 -61 -80 -2 -0 -5 -1 -1 -1 -7 -16 -27 -26 -35 -55 -73 -49 -15 -12 -12
0 0 0 0 0 0 0 0 0 0 0 0 0 0 -0 -4 -0 0 0 0 0 0 0 0 0 -187 -92 -53 -72 -41 -33 -32 -39 -34 -24 -53 -123 -140 -143 -128 -100 -51 -2
0 0 0 0 0 0 0 0 0 0 0 0 0 0 0 0 -1 -0 0 0 0 0 0 0 0 0 0 0 0 -69 0 -81 -71 -211 -193 -201 0 0 -105 -245 -218 -138 -52
0 0 0 0 0 0 0 0 0 0 0 0 0 0 0 0 0 0 0 0 0 0 0 0 0 0 0 0 0 0 0 0 0 0 0 0 0 0 0 0 0 -16 -216
0 0 0 0 0 0 0 0 0 0 0 0 0 0 0 0 0 0 0 0 0 0 0 0 0 0 0 0 0 0 0 0 0 0 0 0 -0 0 -7 0 0 0 0
0 0 0 0 0 0 0 0 0 0 0 0 0 0 0 0 0 0 0 0 0 0 0 0 0 0 0 0 0 0 0 0 0 0 -1 -5 0 0 0 0 0 0 0
0 0 0 0 0 0 0 0 0 0 0 0 0 0 0 0 0 0 0 0 0 0 0 0 0 0 0 0 0 0 0 0 0 -1 -1 -1 -0 -0 0 -0 -1 0 0
0 0 0 0 0 0 0 0 0 0 0 0 0 0 0 0 0 0 0 0 0 0 0 0 0 0 0 0 0 0 0 0 0 -0 -1 -8 0 -0 -0 0 -0 0 -0
0 0 0 0 0 0 0 0 0 0 0 0 0 0 0 0 0 0 0 0 0 0 0 0 0 0 0 0 0 0 0 0 0 0 -1 -2 -1 0 -1 0 0 -0 -0
0 0 0 0 0 0 0 0 0 0 0 0 0 0 0 0 0 0 0 0 0 0 0 0 0 0 0 0 0 0 0 0 0 0 -1 -13 0 0 0 -1 -0 -0 0
0 0 0 0 0 0 0 0 0 0 0 0 0 0 0 0 0 0 0 0 0 0 0 0 0 0 0 0 0 0 0 0 0 0 0 0 0 0 0 -5 -26 0 -0
0 0 0 0 0 0 0 0 0 0 0 0 0 0 0 0 0 0 0 0 0 0 0 0 0 0 0 0 0 0 0 0 0 0 0 0 0 0 0 0 0 0 0
0 0 0 0 0 0 0 0 0 0 0 0 0 0 0 0 0 0 0 0 0 0 0 0 0 0 0 0 0 0 0 0 -0 0 0 0 0 0 0 0 0 0 0
Wind_Speed
12 12 11 12 13 14 16 16 16 15 15 16 16 17 17 18 18 18 18 18 17 18 19 19 20 20 21 22 22 22 22 22 21 20 19 19 18 18 19 19 19 20 20
13 11 10 11 11 12 13 14 14 14 14 15 15 15 15 16 16 16 16 16 16 16 17 18 18 19 20 21 21 22 22 21 21 20 19 19 18 18 17 17 14 18 19
13 10 10 10 10 10 11 12 11 13 13 14 14 14 14 14 14 15 14 14 14 14 15 16 17 17 18 19 19 20 20 20 20 19 19 20 19 18 17 17 17 18 18
11 11 9 9 9 9 9 10 10 11 12 12 13 13 12 13 13 13 13 13 13 13 13 14 15 15 16 16 17 18 18 18 17 15 14 16 18 17 17 16 16 16 16
11 10 9 8 8 8 7 8 9 10 10 11 11 11 11 11 11 12 12 12 12 12 12 12 13 13 14 14 15 15 16 15 14 13 12 16 16 15 15 15 14 14 14
9 10 9 8 8 8 7 7 7 9 9 9 9 9 9 10 10 10 10 11 11 11 11 11 12 12 11 12 12 13 13 13 11 11 16 15 15 13 14 13 12 12 12
9 10 9 8 8 7 7 7 7 8 8 8 8 8 8 8 9 9 9 9 10 10 10 11 11 11 11 10 10 11 12 12 8 19 13 11 12 12 11 11 11 10 10
8 9 9 9 8 8 7 7 7 7 7 8 8 8 8 8 8 8 8 8 8 9 9 10 10 10 12 12 11 11 11 12 10 6 9 9 10 10 9 9 8 8 9
7 8 8 8 8 8 8 8 8 8 9 10 10 10 10 9 8 7 7 8 8 8 8 8 9 12 11 10 11 11 12 14 23 21 22 6 6 8 8 6 6 5 6
7 7 7 7 7 7 7 8 8 9 10 11 12 12 11 10 10 9 8 8 7 8 8 8 8 8 8 7 5 10 13 11 6 4 2 13 10 11 12 10 5 8 2
5 6 6 6 7 7 8 8 8 9 10 11 11 12 11 14 13 12 15 14 14 14 14 13 13 12 12 9 8 12 16 14 11 18 12 14 14 15 14 12 9 8 7
3 4 5 6 6 7 8 7 9 9 12 13 14 13 15 16 16 16 16 16 16 16 16 15 15 14 13 16 15 14 16 18 22 21 24 16 18 20 20 16 12 10 9
2 3 4 5 6 7 9 9 10 11 12 14 15 15 15 16 17 17 17 17 16 17 15 15 16 16 18 19 20 19 19 18 15 17 22 19 20 24 26 25 24 21 13
2 3 4 5 7 9 10 11 11 12 13 14 17 16 15 16 17 18 18 18 19 20 21 21 21 22 21 21 22 22 21 23 25 24 18 18 21 24 26 28 29 28 26
4 5 5 6 8 9 10 12 13 13 15 15 16 18 17 16 16 16 17 17 18 19 20 21 21 21 23 23 23 23 23 24 24 25 26 26 25 26 27 28 28 28 28
6 7 7 7 8 9 12 12 14 15 15 16 17 18 17 17 17 17 16 17 18 19 21 21 22 23 23 23 23 22 24 25 25 26 26 28 28 26 26 26 28 30 30
7 7 7 9 9 10 11 12 14 15 15 16 16 17 17 17 16 17 17 18 19 20 21 21 21 21 22 22 24 24 24 23 23 24 25 25 26 23 24 27 28 29 29
8 8 8 9 9 9 11 12 13 14 15 15 15 17 17 17 17 16 16 18 19 19 20 20 21 22 22 23 24 24 24 23 23 24 23 24 24 25 26 27 28 28 28
9 9 9 9 9 9 10 11 12 13 14 15 15 16 17 17 16 16 17 18 18 18 19 20 20 21 22 23 24 23 22 22 22 22 23 24 24 26 27 27 25 27 28
10 10 10 9 9 8 9 9 11 12 13 13 14 16 16 16 16 15 15 17 17 17 18 20 20 21 20 23 25 23 21 21 21 21 21 21 23 26 27 29 27 26 28
12 11 11 10 9 8 8 8 10 11 11 12 14 14 14 15 15 15 15 16 16 17 18 20 20 20 20 24 23 24 21 18 19 21 21 24 27 27 28 29 29 30 30
15 14 12 12 11 10 9 9 9 10 10 10 12 14 14 14 14 14 14 15 16 16 18 19 20 20 21 23 24 22 22 20 20 20 22 23 24 27 29 30 30 31 31
18 16 15 14 13 12 11 10 9 9 10 10 10 12 12 13 13 13 14 14 15 16 18 19 20 21 22 22 23 23 24 24 28 18 21 23 30 30 32 32 30 30 31
18 17 16 15 14 13 12 11 10 10 10 9 10 11 11 11 12 13 14 14 15 16 17 19 20 21 22 23 20 22 22 23 26 26 25 30 31 33 32 32 30 32 33
19 20 18 16 15 15 14 13 12 11 11 9 9 8 10 10 11 12 13 14 15 16 17 19 20 21 21 22 23 23 22 22 23 26 32 31 33 31 30 30 31 34 35
19 21 21 20 19 17 16 16 15 14 12 11 10 10 9 10 11 12 13 14 15 16 17 19 19 21 21 22 22 23 24 25 27 28 32 34 34 29 29 30 31 33 34
Wind_Direction
68 64 60 61 57 58 56 48 51 64 79 84 85 80 80 79 79 75 73 71 68 69 66 60 57 53 49 42 38 38 39 41 44 50 52 52 50 54 65 71 80 60 67
68 65 64 68 63 55 51 45 43 55 64 73 78 79 78 76 77 75 73 70 66 67 67 62 58 56 54 49 47 48 50 55 61 68 71 63 56 57 60 35 44 61 67
63 69 72 71 66 60 52 42 27 49 57 70 73 75 75 70 68 71 71 68 63 62 62 57 54 55 53 48 49 50 55 61 73 91 99 86 63 68 65 43 41 58 66
70 77 71 71 68 61 43 34 26 39 56 62 66 70 69 62 64 65 68 64 58 56 57 55 50 48 44 39 38 38 45 59 86 114 117 96 65 73 76 62 58 57 65
71 66 62 73 68 60 39 30 31 37 42 50 60 64 62 60 62 61 59 55 44 44 43 43 40 35 35 35 31 32 40 55 96 134 101 29 61 71 72 72 72 72 85
53 55 66 66 62 59 50 40 19 41 28 44 47 50 52 51 49 49 49 42 34 34 32 30 28 36 40 39 30 28 32 46 104 152 16 38 31 66 60 70 77 74 76
52 60 64 60 57 55 34 32 20 20 25 29 31 34 35 37 35 35 32 30 28 25 21 19 21 26 33 38 33 23 18 26 70 252 24 47 37 50 53 60 69 63 66
50 52 57 54 49 40 30 30 22 18 15 16 17 15 13 12 14 17 18 19 15 10 13 12 8 8 360 5 10 9 8 3 281 110 41 40 33 35 59 78 91 95 108
46 50 59 60 49 33 18 14 10 7 0 352 348 347 348 351 356 359 2 358 357 360 5 7 2 352 353 359 355 356 352 346 307 234 281 41 35 23 35 67 67 95 116
42 41 41 54 54 38 20 10 3 355 350 344 342 342 341 344 343 349 348 345 349 348 351 356 355 356 1 1 15 350 340 345 1 14 34 344 354 353 349 355 19 1 85
41 36 33 38 37 32 28 20 12 6 359 352 347 338 340 334 335 336 329 330 327 326 326 328 331 335 336 339 340 336 326 332 336 326 336 336 334 333 331 335 337 337 336
40 31 27 27 21 26 20 23 10 3 351 345 338 338 331 327 326 326 325 324 321 321 321 322 324 327 331 327 329 331 326 322 316 318 313 329 323 321 321 322 324 323 318
24 9 18 12 5 1 352 357 359 353 349 345 340 334 331 325 320 320 320 322 322 316 320 321 321 322 323 324 323 322 322 324 329 325 318 322 321 315 313 313 313 314 312
291 331 348 351 344 340 347 347 349 348 346 345 338 335 332 326 318 314 313 314 315 312 309 309 311 311 314 317 317 317 318 315 314 317 335 333 325 320 317 312 309 309 309
274 302 316 327 332 335 336 341 343 346 344 344 341 334 331 329 322 319 317 317 315 314 310 310 312 312 311 311 313 314 314 314 313 313 311 317 318 318 317 315 312 311 309
275 290 304 314 322 328 330 336 340 341 343 347 345 337 333 328 324 320 319 317 316 315 313 312 312 312 311 312 312 314 313 313 313 313 312 312 315 317 317 319 316 312 309
266 281 292 306 315 322 331 336 339 343 346 349 348 339 335 331 329 324 322 320 317 318 316 317 317 316 314 314 313 313 314 316 318 318 317 318 318 328 326 324 321 316 313
257 266 282 300 308 318 326 330 338 345 347 350 349 338 333 333 331 329 327 324 323 324 323 322 321 318 316 315 315 316 317 319 321 321 323 323 323 320 326 326 325 324 321
249 260 272 287 297 309 317 329 338 345 347 352 347 337 332 333 332 332 330 328 327 329 329 327 325 324 321 320 319 319 320 321 324 326 327 327 328 325 323 327 330 328 327
249 255 265 275 287 297 310 324 334 341 348 350 346 340 333 335 337 338 337 334 333 333 333 330 328 328 327 323 320 321 324 325 327 328 331 331 331 329 327 326 325 330 329
248 251 256 263 270 280 292 303 317 328 340 343 341 343 344 342 343 342 340 337 336 335 334 333 330 328 329 330 326 325 324 332 331 329 331 331 328 330 329 327 325 322 323
254 255 250 254 257 266 280 292 308 324 333 339 339 339 346 347 345 345 343 341 337 338 336 336 333 329 332 335 328 325 324 322 327 329 330 330 331 329 328 326 325 323 321
256 253 254 252 252 259 271 284 299 318 323 326 329 334 343 348 348 348 348 345 343 341 336 336 335 334 330 335 337 330 324 321 323 326 331 333 329 326 324 323 324 323 322
263 261 255 252 251 254 258 269 271 287 299 309 317 325 337 347 348 347 346 346 344 343 340 339 339 336 333 332 335 337 334 331 325 321 326 327 330 327 326 326 330 328 326
267 267 262 258 254 255 256 260 264 276 292 302 310 315 326 337 345 346 345 345 345 344 343 340 339 338 339 336 337 337 338 336 335 326 319 323 327 329 330 331 327 325 324
271 268 267 262 258 253 255 259 259 266 277 281 290 298 308 320 328 335 340 342 342 340 340 340 341 340 340 341 341 340 338 332 329 328 322 323 325 329 329 333 331 328 325